When you browse on this site, cookies collect data to enhance your experience and personalize the content and advertising you see.
Visit our Privacy Policy to learn more. By continuing to use the site, you agree to this use of cookies and data.
  • In Hungary
  • List of Countries
  • For 7 days
  • Water Temperature
  • Satellite Maps
  • Weather Map
  • News
  • Weather Widgets
  • user-avatar
    Login

    Hourly Weather Huangcaotuo

    Today, 12 December, Wednesday

    Time Temperature Precipitation Wind Pressure Humidity
    00:00 -6°C° 0 mm 2 mps 777 mmHg 12%
    01:00 -6°C° 0 mm 2 mps 777 mmHg 12%
    02:00 -8°C° 0 mm 3 mps 777 mmHg 12%
    03:00 -8°C° 0 mm 3 mps 777 mmHg 13%
    04:00 -8°C° 0 mm 3 mps 777 mmHg 13%
    05:00 -9°C° 0 mm 3 mps 777 mmHg 14%
    06:00 -9°C° 0 mm 3 mps 776 mmHg 14%
    07:00 -9°C° 0 mm 3 mps 776 mmHg 15%
    08:00 -9°C° 0 mm 3 mps 776 mmHg 15%
    09:00 -7°C° 0 mm 3 mps 776 mmHg 14%
    10:00 -7°C° 0 mm 4 mps 776 mmHg 13%
    11:00 -4°C° 0 mm 4 mps 775 mmHg 13%
    12:00 -3°C° 0 mm 4 mps 775 mmHg 12%
    13:00 -2°C° 0 mm 5 mps 774 mmHg 11%
    14:00 -1°C° 0 mm 5 mps 773 mmHg 11%
    15:00 -2°C° 0 mm 4 mps 773 mmHg 12%
    16:00 -2°C° 0 mm 3 mps 772 mmHg 13%
    17:00 -4°C° 0 mm 3 mps 772 mmHg 14%
    18:00 -4°C° 0 mm 3 mps 772 mmHg 15%
    19:00 -5°C° 0 mm 3 mps 772 mmHg 15%
    20:00 -5°C° 0 mm 3 mps 772 mmHg 15%
    21:00 -5°C° 0 mm 3 mps 773 mmHg 16%
    22:00 -5°C° 0 mm 3 mps 773 mmHg 16%
    23:00 -5°C° 0 mm 3 mps 773 mmHg 16%

    Tomorrow, 13 December, Thursday

    Time Temperature Precipitation Wind Pressure Humidity
    00:00 -5°C° 0 mm 3 mps 773 mmHg 16%
    01:00 -6°C° 0 mm 3 mps 774 mmHg 16%
    02:00 -6°C° 0 mm 3 mps 774 mmHg 16%
    03:00 -6°C° 0 mm 3 mps 774 mmHg 17%
    04:00 -6°C° 0 mm 3 mps 774 mmHg 17%
    05:00 -6°C° 0 mm 3 mps 775 mmHg 17%
    06:00 -6°C° 0 mm 3 mps 775 mmHg 19%
    07:00 -7°C° 0 mm 4 mps 775 mmHg 20%
    08:00 -5°C° 0 mm 4 mps 776 mmHg 21%
    09:00 -4°C° 0 mm 4 mps 776 mmHg 20%
    10:00 -2°C° 0 mm 5 mps 777 mmHg 19%
    11:00 0°C° 0 mm 5 mps 777 mmHg 17%
    12:00 0°C° 0 mm 5 mps 777 mmHg 17%
    13:00 0°C° 0 mm 4 mps 777 mmHg 16%
    14:00 +1°C° 0 mm 4 mps 776 mmHg 16%
    15:00 +1°C° 0 mm 3 mps 776 mmHg 18%
    16:00 -1°C° 0 mm 2 mps 777 mmHg 19%
    17:00 0°C° 0 mm 1 mps 777 mmHg 21%
    18:00 0°C° 0 mm 1 mps 777 mmHg 22%
    19:00 -1°C° 0 mm 1 mps 777 mmHg 23%
    20:00 -2°C° 0 mm 0 mps 778 mmHg 24%
    21:00 -2°C° 0 mm 0 mps 778 mmHg 24%
    22:00 -2°C° 0 mm 0 mps 778 mmHg 25%
    23:00 -3°C° 0 mm 0 mps 779 mmHg 26%

    Day after tomorrow, 14 December, Friday

    Time Temperature Precipitation Wind Pressure Humidity
    00:00 -3°C° 0 mm 0 mps 779 mmHg 26%
    01:00 -3°C° 0 mm 0 mps 779 mmHg 27%
    02:00 -3°C° 0 mm 0 mps 779 mmHg 28%
    03:00 -3°C° 0 mm 0 mps 778 mmHg 28%
    04:00 -4°C° 0 mm 0 mps 778 mmHg 29%
    05:00 -4°C° 0 mm 0 mps 778 mmHg 30%
    06:00 -4°C° 0 mm 0 mps 778 mmHg 30%
    07:00 -4°C° 0 mm 0 mps 778 mmHg 30%
    08:00 -4°C° 0 mm 0 mps 778 mmHg 30%
    09:00 -2°C° 0 mm 1 mps 778 mmHg 27%
    10:00 0°C° 0 mm 1 mps 778 mmHg 24%
    11:00 +2°C° 0 mm 1 mps 778 mmHg 22%
    12:00 +1°C° 0 mm 2 mps 778 mmHg 20%
    13:00 +2°C° 0 mm 2 mps 777 mmHg 19%
    14:00 +3°C° 0 mm 2 mps 776 mmHg 18%
    15:00 +2°C° 0 mm 2 mps 776 mmHg 20%
    16:00 +1°C° 0 mm 2 mps 776 mmHg 23%
    17:00 -1°C° 0 mm 2 mps 775 mmHg 25%
    18:00 -1°C° 0 mm 2 mps 775 mmHg 27%
    19:00 -2°C° 0 mm 2 mps 775 mmHg 28%
    20:00 -2°C° 0 mm 2 mps 776 mmHg 30%
    21:00 -2°C° 0 mm 2 mps 775 mmHg 31%
    22:00 -2°C° 0 mm 2 mps 775 mmHg 32%
    23:00 -3°C° 0 mm 2 mps 775 mmHg 33%

    15 December, Saturday

    Time Temperature Precipitation Wind Pressure Humidity
    00:00 -3°C° 0 mm 2 mps 774 mmHg 33%
    01:00 -3°C° 0 mm 2 mps 774 mmHg 34%
    02:00 -3°C° 0 mm 2 mps 774 mmHg 34%
    03:00 -3°C° 0 mm 2 mps 773 mmHg 35%
    04:00 -3°C° 0 mm 2 mps 773 mmHg 36%
    05:00 -4°C° 0 mm 2 mps 772 mmHg 38%
    06:00 -3°C° 0 mm 2 mps 772 mmHg 39%
    07:00 -3°C° 0 mm 2 mps 772 mmHg 41%
    08:00 -3°C° 0 mm 2 mps 772 mmHg 42%
    09:00 -2°C° 0 mm 3 mps 772 mmHg 41%
    10:00 -1°C° 0 mm 3 mps 772 mmHg 40%
    11:00 +1°C° 0 mm 3 mps 772 mmHg 39%
    12:00 +2°C° 0 mm 3 mps 771 mmHg 37%
    13:00 +2°C° 0 mm 3 mps 770 mmHg 36%
    14:00 +3°C° 0 mm 3 mps 769 mmHg 34%
    15:00 +2°C° 0 mm 3 mps 769 mmHg 35%
    16:00 +3°C° 0 mm 2 mps 769 mmHg 37%
    17:00 +2°C° 0 mm 2 mps 769 mmHg 38%
    18:00 +2°C° 0 mm 1 mps 769 mmHg 38%
    19:00 +2°C° 0 mm 1 mps 769 mmHg 38%
    20:00 +1°C° 0 mm 1 mps 769 mmHg 38%
    21:00 +1°C° 0 mm 1 mps 769 mmHg 37%
    22:00 -2°C° 0 mm 2 mps 769 mmHg 36%
    23:00 -2°C° 0 mm 2 mps 769 mmHg 35%

    16 December, Sunday

    Time Temperature Precipitation Wind Pressure Humidity
    00:00 -2°C° 0 mm 2 mps 768 mmHg 33%
    01:00 -2°C° 0 mm 2 mps 768 mmHg 32%
    02:00 -3°C° 0 mm 2 mps 768 mmHg 31%
    03:00 -3°C° 0 mm 2 mps 767 mmHg 30%
    04:00 -3°C° 0 mm 2 mps 767 mmHg 30%
    05:00 -3°C° 0 mm 2 mps 767 mmHg 29%
    06:00 -3°C° 0 mm 2 mps 767 mmHg 29%
    07:00 -3°C° 0 mm 2 mps 767 mmHg 29%
    08:00 -3°C° 0 mm 2 mps 767 mmHg 29%
    09:00 -1°C° 0 mm 2 mps 767 mmHg 27%
    10:00 +1°C° 0 mm 3 mps 767 mmHg 24%
    11:00 +3°C° 0 mm 3 mps 767 mmHg 21%
    12:00 +4°C° 0 mm 4 mps 766 mmHg 21%
    13:00 +4°C° 0 mm 4 mps 766 mmHg 20%
    14:00 +5°C° 0 mm 5 mps 765 mmHg 19%
    15:00 +4°C° 0 mm 4 mps 765 mmHg 21%
    16:00 +3°C° 0 mm 3 mps 765 mmHg 22%
    17:00 +2°C° 0 mm 3 mps 765 mmHg 24%
    18:00 +2°C° 0 mm 3 mps 765 mmHg 24%
    19:00 +1°C° 0 mm 4 mps 766 mmHg 25%
    20:00 0°C° 0 mm 4 mps 766 mmHg 25%
    21:00 0°C° 0 mm 4 mps 767 mmHg 24%
    22:00 0°C° 0 mm 5 mps 767 mmHg 23%
    23:00 -1°C° 0 mm 5 mps 767 mmHg 22%

    17 December, Monday

    Time Temperature Precipitation Wind Pressure Humidity
    00:00 -1°C° 0 mm 5 mps 767 mmHg 22%
    01:00 -1°C° 0 mm 5 mps 767 mmHg 23%
    02:00 -2°C° 0 mm 5 mps 768 mmHg 23%
    03:00 -2°C° 0 mm 4 mps 768 mmHg 23%
    04:00 -2°C° 0 mm 4 mps 768 mmHg 24%
    05:00 -3°C° 0 mm 4 mps 767 mmHg 25%
    06:00 -2°C° 0 mm 3 mps 768 mmHg 25%
    07:00 -2°C° 0 mm 3 mps 768 mmHg 26%
    08:00 -2°C° 0 mm 3 mps 768 mmHg 26%
    09:00 -1°C° 0 mm 3 mps 768 mmHg 24%
    10:00 0°C° 0 mm 4 mps 768 mmHg 22%
    11:00 +1°C° 0 mm 4 mps 768 mmHg 20%
    12:00 +3°C° 0 mm 4 mps 767 mmHg 19%
    13:00 +4°C° 0 mm 4 mps 766 mmHg 18%
    14:00 +5°C° 0 mm 5 mps 765 mmHg 18%
    15:00 +4°C° 0 mm 4 mps 764 mmHg 19%
    16:00 +3°C° 0 mm 3 mps 764 mmHg 21%
    17:00 +3°C° 0 mm 3 mps 764 mmHg 23%
    18:00 +2°C° 0 mm 3 mps 764 mmHg 24%
    19:00 +2°C° 0 mm 3 mps 764 mmHg 26%
    20:00 +1°C° 0 mm 3 mps 764 mmHg 27%
    21:00 +1°C° 0 mm 3 mps 764 mmHg 28%
    22:00 0°C° 0 mm 3 mps 764 mmHg 29%
    23:00 0°C° 0 mm 3 mps 763 mmHg 30%
    Show more